sat.trackr.live / text

‹ back to catalog

STARLINK-35587

NORAD 66158 · 2025-240N

PAYLOAD ACTIVE UNKNOWN

§ Identity

Operator
Country
US
Launch date
2025-10-25
Launch site
AFWTR
Launch vehicle
Mass (kg)
RCS (m²)

Purposes: comms

External: N2YO · Heavens-Above · Gunter

§ Orbital elements

Epoch: 2026-05-25T01:59:46.139424Z

Period
94.11 min
Inclination
53.1572°
Eccentricity
0.0001019
Mean motion
15.30200701 rev/d
Perigee alt
474.5 km
Apogee alt
475.9 km
Semi-major
6,853.3 km
B*
6.2582e-4
RAAN
68.0430°
Arg perigee
85.2546°
Mean anomaly
274.8571°
Rev number
3,368

§ Raw data

STARLINK-355871 66158U 25240N   26145.08317291  .00018222  00000+0  62582-3 0  99982 66158  53.1572  68.0430 0001019  85.2546 274.8571 15.30200701 33686

JSON: /api/v1/satellites/66158 · /tle

For live sub-satellite position, see the globe view (requires WebGL).

§ Visibility from observer

Set your observer location to see the next 7 days of passes ≥ 10°. The values pass through the URL so the page stays shareable.

No JS? Fill the form by hand. The geolocation button needs JavaScript.